Voltar ao catálogo

ONEWEB-0438

AtivoComunicaçõesPO
NORAD 51634·PAYLOAD·🇬🇧 United Kingdom

Lançado Feb 10, 2022 de Guiana Space Centre

Loading…

Próximas Passagens (próximas 24 horas)

TLE

AtualizadoSource: CelesTrak SupGP

Época: Sep 15, 2026, 05:07 UTC

1 51634C 22012N   26258.21369630  .00005657  00000+0  16222-1 0  2583
2 51634  87.8894  18.3549 0001844 108.2321 292.0812 13.10382172    12

Acompanhe ONEWEB-0438 em tempo real com AllMySat

Download on the App Store